Regional Weather Roundup
Issued by NWS

Home | Current Version | Previous Version | Graphics & Text | Print | Product List | Glossary On
Versions: 1 2 3 4 5 6 7 8 9 10 11 12 13 14 15 16 17 18 19 20 21 22 23 24 25 26 27 28 29 30 31 32 33 34 35 36 37 38 39 40 41 42 43 44 45 46 47 48 49 50
000
ASUS43 KBIS 031202
RWRND

NORTH DAKOTA REGIONAL WEATHER ROUNDUP
NATIONAL WEATHER SERVICE BISMARCK ND
700 AM CDT WED JUN 03 2015

NOTE: "FAIR" INDICATES FEW OR NO CLOUDS BELOW 12,000 FEET WITH NO
SIGNIFICANT WEATHER AND/OR OBSTRUCTIONS TO VISIBILITY.


NDZ001>003-009>011-017-031300-
NORTHWEST NORTH DAKOTA

CITY           SKY/WX    TMP DP  RH WIND       PRES   REMARKS
WILLISTON      CLEAR     49  47  93 NE6       30.02R
6HR MIN TEMP:  48; 6HR MAX TEMP:  54;

MINOT          CLOUDY    50  46  86 NW9       29.96S
MINOT AFB      CLOUDY    50  50 100 N8        29.96S
$$

NDZ018>021-031>035-040>046-031300-
SOUTHWEST NORTH DAKOTA

CITY           SKY/WX    TMP DP  RH WIND       PRES   REMARKS
BISMARCK       CLOUDY    50  45  83 N15G23    29.93R
6HR MIN TEMP:  50; 6HR MAX TEMP:  61;

DICKINSON      LGT RAIN  49  47  93 N14       29.98R FOG
GARRISON         N/A     49  44  83 NE12G24   29.95R
6HR MIN TEMP:  48; 6HR MAX TEMP:  54; 6HR PCP:  0.10;

HETTINGER ARPT CLOUDY    53  49  86 N15       29.97R
$$

NDZ004>008-012>016-024-026-027-054-031300-
NORTHEAST NORTH DAKOTA

CITY           SKY/WX    TMP DP  RH WIND       PRES   REMARKS
GRAND FORKS    CLOUDY    54  52  93 NW15      29.79R
GRND FRKS AFB  CLOUDY    53  48  84 N12       29.81R
DEVILS LAKE    CLOUDY    48  39  71 N17G23    29.86R
$$

NDZ022-023-025-028>030-036>039-047>053-031300-
SOUTHEAST NORTH DAKOTA

CITY           SKY/WX    TMP DP  RH WIND       PRES   REMARKS
FARGO          CLOUDY    61  59  93 NW15      29.72R FOG
6HR MIN TEMP:  61; 6HR MAX TEMP:  71;

JAMESTOWN      LGT RAIN  56  55  97 N16       29.82R FOG
$$




USA.gov is the U.S. government's official web portal to all federal, state and local government web resources and services.